User: anonymous   Login
Location: UBC Liquid-Mirror Observatory
(49.2876°N, 122.5728°W)
Time: 19:31:37
(UTC-07:00)
Language:

Cosmos 1743 Rocket - Orbit

View from above orbital plane
View from above orbital plane
View from above satellite
View from above satellite

Ground track
Ground track

The orbit data is extracted from the following two-line orbital elements,

1 16720U 86034B   14303.89507203  .00000545  00000-0  64101-4 0  5987
2 16720 082.5565 056.5815 0020839 033.0677 106.5000 14.82847640536928
Epoch (UTC): 30 October 2014 21:28:54
Eccentricity: 0.0020839
inclination: 82.5565°
perigee height: 606 km
apogee height: 635 km
right ascension of ascending node: 56.5815°
argument of perigee: 33.0677°
revolutions per day: 14.82847640
mean anomaly at epoch: 106.5000°
orbit number at epoch: 53692

The dashed part of the orbit path shows where the satellite is in the earth's shadow,  

DLR